sat.trackr.live / text

‹ back to catalog

STARLINK-4303

NORAD 53544 · 2022-101T

PAYLOAD ACTIVE UNKNOWN

§ Identity

Operator
Country
US
Launch date
2022-08-19
Launch site
AFETR
Launch vehicle
Mass (kg)
RCS (m²)

Purposes: comms

External: N2YO · Heavens-Above · Gunter

§ Orbital elements

Epoch: 2026-09-19T14:23:40.193664Z

Period
93.85 min
Inclination
53.1592°
Eccentricity
0.0001387
Mean motion
15.34378380 rev/d
Perigee alt
461.8 km
Apogee alt
463.7 km
Semi-major
6,840.9 km
B*
9.3316e-5
RAAN
257.8161°
Arg perigee
87.2180°
Mean anomaly
272.8981°
Rev number
22,646

§ Raw data

STARLINK-43031 53544U 22101T   26262.59977076  .00002776  00000+0  93316-4 0  99922 53544  53.1592 257.8161 0001387  87.2180 272.8981 15.34378380226462

JSON: /api/v1/satellites/53544 · /tle

For live sub-satellite position, see the globe view (requires WebGL).

§ Visibility from observer

Set your observer location to see the next 7 days of passes ≥ 10°. The values pass through the URL so the page stays shareable.

No JS? Fill the form by hand. The geolocation button needs JavaScript.